User: anonymous   Login
Location: Ottawa
(45.4170°N, 75.7000°W)
Time: 05:21:09
(UTC-04:00)
Language:

Envisat - Orbit

View from above orbital plane
View from above orbital plane
View from above satellite
View from above satellite

Ground track
Ground track

The orbit data is extracted from the following two-line orbital elements,

1 27386U 02009A   19144.06097485 -.00000027  00000-0  45538-5 0  9995
2 27386  98.1508 166.3958 0001302  88.9969 327.6726 14.37948922902511
Epoch (UTC): 24 May 2019 01:27:48
Eccentricity: 0.0001302
inclination: 98.1508°
perigee height: 764 km
apogee height: 766 km
right ascension of ascending node: 166.3958°
argument of perigee: 88.9969°
revolutions per day: 14.37948922
mean anomaly at epoch: 327.6726°
orbit number at epoch: 90251

The dashed part of the orbit path shows where the satellite is in the earth's shadow,  

DLR